When you browse on this site, cookies collect data to enhance your experience and personalize the content and advertising you see.
Visit our Privacy Policy to learn more. By continuing to use the site, you agree to this use of cookies and data.
  • In Hungary
  • List of Countries
  • For 7 days
  • Water Temperature
  • Satellite Maps
  • Weather Map
  • News
  • Weather Widgets
  • user-avatar
    Login

    Hourly Weather Chhibramau

    Today, 17 November, Saturday

    Time Temperature Precipitation Wind Pressure Humidity
    00:00 +21°C° 0 mm 3 mps 746 mmHg 35%
    01:00 +20°C° 0 mm 2 mps 745 mmHg 36%
    02:00 +20°C° 0 mm 2 mps 745 mmHg 36%
    03:00 +19°C° 0 mm 2 mps 745 mmHg 37%
    04:00 +19°C° 0 mm 2 mps 745 mmHg 37%
    05:00 +19°C° 0 mm 2 mps 745 mmHg 39%
    06:00 +19°C° 0 mm 2 mps 746 mmHg 38%
    07:00 +20°C° 0 mm 2 mps 746 mmHg 37%
    08:00 +21°C° 0 mm 2 mps 746 mmHg 36%
    09:00 +24°C° 0 mm 2 mps 746 mmHg 32%
    10:00 +26°C° 0 mm 2 mps 746 mmHg 28%
    11:00 +27°C° 0 mm 3 mps 746 mmHg 25%
    12:00 +28°C° 0 mm 3 mps 746 mmHg 24%
    13:00 +29°C° 0 mm 3 mps 745 mmHg 23%
    14:00 +29°C° 0 mm 3 mps 744 mmHg 22%
    15:00 +28°C° 0 mm 2 mps 744 mmHg 25%
    16:00 +27°C° 0 mm 2 mps 744 mmHg 28%
    17:00 +25°C° 0 mm 1 mps 743 mmHg 30%
    18:00 +25°C° 0 mm 1 mps 744 mmHg 32%
    19:00 +24°C° 0 mm 1 mps 744 mmHg 33%
    20:00 +24°C° 0 mm 1 mps 744 mmHg 34%
    21:00 +23°C° 0 mm 1 mps 744 mmHg 35%
    22:00 +23°C° 0 mm 1 mps 744 mmHg 36%
    23:00 +22°C° 0 mm 1 mps 745 mmHg 37%

    Tomorrow, 18 November, Sunday

    Time Temperature Precipitation Wind Pressure Humidity
    00:00 +22°C° 0 mm 1 mps 745 mmHg 38%
    01:00 +22°C° 0 mm 1 mps 745 mmHg 39%
    02:00 +19°C° 0 mm 0 mps 745 mmHg 40%
    03:00 +19°C° 0 mm 0 mps 745 mmHg 41%
    04:00 +19°C° 0 mm 0 mps 745 mmHg 41%
    05:00 +18°C° 0 mm 0 mps 745 mmHg 42%
    06:00 +19°C° 0 mm 0 mps 746 mmHg 40%
    07:00 +20°C° 0 mm 0 mps 747 mmHg 39%
    08:00 +21°C° 0 mm 0 mps 747 mmHg 38%
    09:00 +23°C° 0 mm 0 mps 748 mmHg 34%
    10:00 +27°C° 0 mm 1 mps 748 mmHg 30%
    11:00 +28°C° 0 mm 1 mps 748 mmHg 27%
    12:00 +29°C° 0 mm 1 mps 747 mmHg 25%
    13:00 +28°C° 0 mm 0 mps 746 mmHg 23%
    14:00 +28°C° 0 mm 0 mps 746 mmHg 22%
    15:00 +27°C° 0 mm 0 mps 746 mmHg 24%
    16:00 +26°C° 0 mm 0 mps 745 mmHg 26%
    17:00 +25°C° 0 mm 0 mps 745 mmHg 28%
    18:00 +24°C° 0 mm 0 mps 746 mmHg 28%
    19:00 +26°C° 0 mm 1 mps 746 mmHg 29%
    20:00 +25°C° 0 mm 1 mps 747 mmHg 30%
    21:00 +25°C° 0 mm 1 mps 747 mmHg 31%
    22:00 +24°C° 0 mm 1 mps 747 mmHg 32%
    23:00 +24°C° 0 mm 1 mps 747 mmHg 34%

    Day after tomorrow, 19 November, Monday

    Time Temperature Precipitation Wind Pressure Humidity
    00:00 +23°C° 0 mm 2 mps 747 mmHg 35%
    01:00 +23°C° 0 mm 2 mps 746 mmHg 36%
    02:00 +21°C° 0 mm 2 mps 746 mmHg 37%
    03:00 +22°C° 0 mm 1 mps 746 mmHg 38%
    04:00 +21°C° 0 mm 1 mps 747 mmHg 39%
    05:00 +21°C° 0 mm 1 mps 747 mmHg 40%
    06:00 +22°C° 0 mm 1 mps 747 mmHg 39%
    07:00 +23°C° 0 mm 1 mps 748 mmHg 38%
    08:00 +24°C° 0 mm 1 mps 749 mmHg 36%
    09:00 +26°C° 0 mm 1 mps 749 mmHg 33%
    10:00 +27°C° 0 mm 1 mps 749 mmHg 30%
    11:00 +29°C° 0 mm 1 mps 749 mmHg 26%
    12:00 +30°C° 0 mm 1 mps 749 mmHg 25%
    13:00 +31°C° 0 mm 1 mps 748 mmHg 24%
    14:00 +31°C° 0 mm 1 mps 747 mmHg 23%
    15:00 +30°C° 0 mm 1 mps 747 mmHg 25%
    16:00 +29°C° 0 mm 1 mps 747 mmHg 28%
    17:00 +28°C° 0 mm 1 mps 747 mmHg 30%
    18:00 +27°C° 0 mm 1 mps 747 mmHg 31%
    19:00 +26°C° 0 mm 1 mps 748 mmHg 32%
    20:00 +26°C° 0 mm 1 mps 748 mmHg 34%
    21:00 +25°C° 0 mm 1 mps 748 mmHg 35%
    22:00 +25°C° 0 mm 1 mps 748 mmHg 36%
    23:00 +24°C° 0 mm 1 mps 748 mmHg 37%

    20 November, Tuesday

    Time Temperature Precipitation Wind Pressure Humidity
    00:00 +24°C° 0 mm 1 mps 747 mmHg 38%
    01:00 +23°C° 0 mm 1 mps 747 mmHg 39%
    02:00 +23°C° 0 mm 1 mps 747 mmHg 41%
    03:00 +21°C° 0 mm 0 mps 747 mmHg 42%
    04:00 +20°C° 0 mm 0 mps 747 mmHg 42%
    05:00 +20°C° 0 mm 0 mps 747 mmHg 43%
    06:00 +21°C° 0 mm 0 mps 748 mmHg 42%
    07:00 +22°C° 0 mm 0 mps 748 mmHg 40%
    08:00 +25°C° 0 mm 1 mps 749 mmHg 39%
    09:00 +26°C° 0 mm 1 mps 749 mmHg 35%
    10:00 +28°C° 0 mm 2 mps 749 mmHg 32%
    11:00 +30°C° 0 mm 2 mps 749 mmHg 28%
    12:00 +31°C° 0 mm 3 mps 748 mmHg 27%
    13:00 +31°C° 0 mm 3 mps 747 mmHg 25%
    14:00 +33°C° 0 mm 3 mps 747 mmHg 24%
    15:00 +30°C° 0 mm 3 mps 746 mmHg 26%
    16:00 +29°C° 0 mm 3 mps 746 mmHg 28%
    17:00 +27°C° 0 mm 2 mps 746 mmHg 30%
    18:00 +27°C° 0 mm 2 mps 746 mmHg 29%
    19:00 +26°C° 0 mm 2 mps 747 mmHg 29%
    20:00 +25°C° 0 mm 2 mps 748 mmHg 29%
    21:00 +25°C° 0 mm 2 mps 748 mmHg 29%
    22:00 +24°C° 0 mm 2 mps 748 mmHg 30%
    23:00 +23°C° 0 mm 2 mps 748 mmHg 30%

    21 November, Wednesday

    Time Temperature Precipitation Wind Pressure Humidity
    00:00 +23°C° 0 mm 2 mps 748 mmHg 30%
    01:00 +21°C° 0 mm 2 mps 747 mmHg 30%
    02:00 +21°C° 0 mm 2 mps 747 mmHg 31%
    03:00 +21°C° 0 mm 2 mps 747 mmHg 31%
    04:00 +20°C° 0 mm 2 mps 747 mmHg 31%
    05:00 +20°C° 0 mm 2 mps 747 mmHg 31%
    06:00 +20°C° 0 mm 2 mps 748 mmHg 31%
    07:00 +21°C° 0 mm 2 mps 748 mmHg 31%
    08:00 +23°C° 0 mm 2 mps 749 mmHg 31%
    09:00 +25°C° 0 mm 3 mps 749 mmHg 27%
    10:00 +27°C° 0 mm 3 mps 749 mmHg 23%
    11:00 +29°C° 0 mm 4 mps 749 mmHg 20%
    12:00 +30°C° 0 mm 4 mps 748 mmHg 19%
    13:00 +30°C° 0 mm 4 mps 747 mmHg 18%
    14:00 +32°C° 0 mm 4 mps 746 mmHg 17%
    15:00 +29°C° 0 mm 4 mps 746 mmHg 19%
    16:00 +28°C° 0 mm 3 mps 746 mmHg 22%
    17:00 +26°C° 0 mm 2 mps 746 mmHg 24%
    18:00 +25°C° 0 mm 2 mps 747 mmHg 25%
    19:00 +24°C° 0 mm 2 mps 747 mmHg 26%
    20:00 +24°C° 0 mm 1 mps 748 mmHg 27%
    21:00 +23°C° 0 mm 1 mps 748 mmHg 27%
    22:00 +23°C° 0 mm 1 mps 748 mmHg 28%
    23:00 +22°C° 0 mm 1 mps 748 mmHg 28%

    22 November, Thursday

    Time Temperature Precipitation Wind Pressure Humidity
    00:00 +22°C° 0 mm 1 mps 748 mmHg 29%
    01:00 +21°C° 0 mm 1 mps 748 mmHg 29%
    02:00 +21°C° 0 mm 1 mps 748 mmHg 30%
    03:00 +21°C° 0 mm 1 mps 748 mmHg 30%
    04:00 +20°C° 0 mm 1 mps 748 mmHg 31%
    05:00 +19°C° 0 mm 2 mps 748 mmHg 31%
    06:00 +21°C° 0 mm 1 mps 748 mmHg 31%
    07:00 +21°C° 0 mm 1 mps 749 mmHg 31%
    08:00 +22°C° 0 mm 1 mps 749 mmHg 31%
    09:00 +24°C° 0 mm 1 mps 749 mmHg 28%
    10:00 +26°C° 0 mm 2 mps 749 mmHg 24%
    11:00 +28°C° 0 mm 2 mps 749 mmHg 21%
    12:00 +29°C° 0 mm 2 mps 748 mmHg 20%
    13:00 +29°C° 0 mm 3 mps 748 mmHg 18%
    14:00 +30°C° 0 mm 3 mps 747 mmHg 17%
    15:00 +29°C° 0 mm 3 mps 747 mmHg 19%
    16:00 +27°C° 0 mm 3 mps 746 mmHg 22%
    17:00 +26°C° 0 mm 2 mps 746 mmHg 24%
    18:00 +25°C° 0 mm 2 mps 747 mmHg 25%
    19:00 +24°C° 0 mm 2 mps 747 mmHg 26%
    20:00 +24°C° 0 mm 2 mps 748 mmHg 27%
    21:00 +23°C° 0 mm 2 mps 748 mmHg 28%
    22:00 +23°C° 0 mm 2 mps 748 mmHg 29%
    23:00 +21°C° 0 mm 2 mps 748 mmHg 30%
    Show more